(135) Hertha(135) Hertha Epoch 2007 Oct. 27.0 TT = JDT 2454400.5 Goffin M 324.37444 (2000.0) P Q n 0.26031204 Peri. 339.91263 +0.80669069 +0.59086807 a 2.4292556 Node 343.85373 -0.53656586 +0.72436056 e 0.2062584 Incl. 2.30473 -0.24768369 +0.35521360 P 3.79 H 8.23 G 0.15 U 0 From 522 observations at 71 oppositions, 1874-1999, mean residual 0".56.An explanation of the orbital elements is available.
These orbital elements are also available in forms suitable for loading into a number of popular planetarium-type software programs.
Personalized ephemerides for this object (and others) can be generated using the MPES.
Date TT R. A. (2000) Decl. Delta r Elong. Phase V 2008 09 27 03 44.77 +22 39.6 1.462 2.196 125.0 21.9 11.8 2008 10 02 03 44.31 +22 46.7 1.426 2.207 130.0 20.3 11.7 2008 10 07 03 42.95 +22 50.8 1.395 2.218 135.2 18.5 11.6 2008 10 12 03 40.69 +22 51.8 1.367 2.230 140.6 16.5 11.5 2008 10 17 03 37.60 +22 49.4 1.343 2.241 146.2 14.3 11.4 2008 10 22 03 33.75 +22 43.6 1.325 2.253 152.0 12.0 11.3 2008 10 27 03 29.23 +22 34.3 1.312 2.264 158.0 9.5 11.2 2008 11 01 03 24.21 +22 21.7 1.305 2.276 164.0 6.9 11.1 2008 11 06 03 18.86 +22 06.1 1.305 2.287 170.0 4.3 11.0 2008 11 11 03 13.37 +21 48.1 1.311 2.299 175.3 2.0 10.9 2008 11 16 03 07.95 +21 28.3 1.324 2.310 175.0 2.2 10.9 2008 11 21 03 02.78 +21 07.5 1.343 2.322 169.6 4.4 11.1 2008 11 26 02 58.02 +20 46.6 1.370 2.334 163.7 6.8 11.3 2008 12 01 02 53.83 +20 26.5 1.403 2.345 157.7 9.2 11.4 2008 12 06 02 50.32 +20 08.0 1.442 2.357 151.8 11.4 11.6 2008 12 11 02 47.56 +19 51.6 1.487 2.368 146.1 13.4 11.7 2008 12 16 02 45.59 +19 38.1 1.537 2.380 140.5 15.2 11.9